Flag for Germany Weather past 2 weeks in Neuwied, Rhineland-Palatinate, Germany

Now
54 °F

Cool.


Feels Like: 52 °F
Forecast: 51 / 65 °F
Wind: 6 mph from West

Location: Buechel

Current Time: Aug 31, 2014 at 7:05:41 AM

Latest Report: Aug 31, 2014 at 6:20 AM


Visibility: N/A

Pressure: 29.98 "Hg

Humidity: 94%

Dew point: 52 °F

Location of NeuwiedLocation

Historic Weather in Neuwied — Graph

°F

Neuwied temperature yesterday

Maximum temperature yesterday: 63 °F (at 12:20 PM)
Minimum temperature yesterday: 52 °F (at 4:20 AM)
Average temperature yesterday: 58 °F

Past Weeks' High & Low Weather Summary

 TemperatureHumidityPressure
High68 °F (Aug 29, 2:20 PM)100% (Aug 17, 6:20 AM)30.12 "Hg (Aug 17, 6:20 AM)
Low41 °F (Aug 24, 7:20 AM)51% (Aug 20, 3:20 PM)29.62 "Hg (Aug 26, 5:20 AM)
Average55 °F81%29.97 "Hg
* Reported Aug 16 5:20 AM — Aug 31 5:20 AM, Neuwied, Weather by CustomWeather, © 2014

Note: Actual official high and low records may vary slightly from our data, if they occured in-between our weather recording intervals... More about our weather records

Advertising

Neuwied weather history for previous 24 hours

 ConditionsComfort  
Time TempWeatherWind HumidityBarometerVisibility
5:20 AM
Aug 31
54 °FCool.5 mph94%29.98 "HgN/A
4:20 AM54 °FCool.5 mph94%29.98 "HgN/A
3:20 AM55 °FCool.6 mph88%30.01 "HgN/A
2:20 AM55 °FCool.6 mph88%30.01 "HgN/A
1:20 AM55 °FCool.7 mph88%30.04 "HgN/A
12:20 AM57 °FCool.12 mph82%30.04 "HgN/A
11:20 PM
Aug 30
59 °FCool.8 mph88%30.04 "HgN/A
10:20 PM59 °FCool.8 mph88%30.04 "HgN/A
9:20 PM59 °FCool.7 mph88%30.04 "HgN/A
8:20 PM61 °FCool.8 mph83%30.04 "HgN/A
7:20 PM61 °FCool.8 mph77%30.04 "HgN/A
6:20 PM61 °FCool.10 mph77%30.04 "HgN/A
5:20 PM59 °FCool.7 mph82%30.07 "HgN/A
4:20 PM61 °FCool.8 mph77%30.07 "HgN/A
3:20 PM63 °FMild.12 mph68%30.07 "HgN/A
2:20 PM63 °FMild.12 mph68%30.07 "HgN/A
1:20 PM63 °FMild.14 mph68%30.07 "HgN/A
12:20 PM63 °FMild.14 mph73%30.09 "HgN/A
11:20 AM61 °FCool.12 mph77%30.09 "HgN/A
10:20 AM59 °FCool.9 mph82%30.09 "HgN/A
9:20 AM55 °FCool.9 mph94%30.09 "HgN/A
8:20 AM54 °FCool.6 mph94%30.09 "Hg4 mi
7:20 AM54 °FCool.8 mph94%30.07 "Hg5 mi
Weather by CustomWeather, © 2014

See weather overviewHow to use our weather pages